STARLINK-31806, 59640

Orbit data source: Space-Track

STARLINK-31806, 59640 is a payload satellite owned by SpaceX/Seattle (US) in LEO that was launched on Fri, 03 May 2024 UTC via an FALCON 9 launch vehicle from the Air Force Eastern Test Range (AFETR). Payload-class satellites include a variety of spacecraft equipped with specific instruments for various scientific and technological missions. These include communications satellites like Starlink; space stations such as the ISS; scientific satellites like the Hubble; Earth observation satellites from companies like Planet Labs, Umbra, and HawkEye 360; GPS; miniature CubeSats for education and research; and military/defense satellites.

Loading next visibility...
Identifier
59640, 2024-082K
Orbit
LEO
Country
Flag of USUS
Related business
Manufacturer
SpaceX/Seattle
Mission
Operational Commercial Communications
Bus & Motor
STARLINK V2M, Unknown motor
Mass
730 kg wet, ~700 kg dry
Launch date (UTC)
2024-05-03 (2 years ago)
Launch vehicle
FALCON 9
Launch site
Air Force Eastern Test Range (AFETR)
Object type
Payload
Rocket body
Debris
Shape & HBR
Box + 2 Pan, 17.7 m
Radar Cross Section
33.884 m², Large (>1 m²)

Expand to show TLE details & history
Last TLE update: 2 days ago

TLE from 2 days ago
0 STARLINK-31806
1 59640U 24082K   26171.29632485  .00000523  00000-0  28555-4 0  9995
2 59640  43.0035 280.4008 0001851 291.8560  68.2095 15.27574247120501
Epoch: 2026-06-20T07:06Z
TLE epoch observation values (Epoch: 2026-06-20T07:06:42.467Z)
Latitude
0.00002°
Longitude
-94.78911°
Altitude
482.371 km
Speed
7.626 km/s
True Right ascension
18h 41m 36s
True Declination
0° 00' 00"
Sunlit
Object was in full shadow at epoch
Visualization orbit readout
Latitude
Unknown
Longitude
Unknown
Altitude
Unknown
Speed
Unknown
Apparent Right ascension
Unknown
Apparent Declination
Unknown
Sunlit
N/A
Visualization observer readout
Local Sidereal Time
21:25:44
Azimuth
Unknown
Elevation
Unknown
Doppler factor
Unknown
Orbital elements
Apogee altitude
486.281 km
Perigee altitude
483.741 km
Semi-major axis
6,863.148 km
Eccentricity
0.00019
Inclination
43.0035°
RAAN
280.4008°
Arg. of periapsis
291.856°
True anomaly
68.2292°
Mean anomaly
68.2095°
Eccentric anomaly
68.21935°
Mean motion
3.81732 °/min
Orbital period
94.31 mins
BSTAR
0.000028555
Loading maneuver chart data...
Computing Atmospheric mass density...
Loading historical data...
Loading historical data...
Loading historical data...
Loading historical data...
Loading historical data...
Loading historical data...
Loading historical data...

Documentation

Showing up to 5 results
|